M I D A S
Marine Information and Data Acquisition System
Tripno 150 of the Zeeleeuw from 2001-08-21 06:17:17 to 2001-08-21 18:35:00
Back to CruiseResearch ActivitiesStationsMapUnderway DataData graphs

EquipmentUnitsComment
TimeDGPSUTC
LatitudeDGPSDM.mWGS84
LongitudeDGPSDM.mWGS84
HeadingGyrodeg 
SOGDGPSknotsSpeed over ground
COGDGPSdegCourse over ground
DepthEcho soundermeters200 kHz
Missing or incorrect values are displayed as -999
Navigation data collected by the RV Zeeleeuw from 2001-08-21 06:17:17 to 2001-08-21 18:35:00
Time Latitude Longitude Heading SOG COG Depth
2001-08-21 06:19:41 51°13.678 2°55.921 128   148.5 5.7
2001-08-21 06:20:41 51°13.678 2°55.922 128   345.2 5.9
2001-08-21 06:21:41 51°13.678 2°55.922 128   63.9 5.9
2001-08-21 06:22:41 51°13.678 2°55.922 128.2   348.5 5.9
2001-08-21 06:23:53 51°13.678 2°55.922 128   331.8 -999
2001-08-21 06:24:53 51°13.678 2°55.922 128   356 5.9
2001-08-21 06:25:53 51°13.678 2°55.922 128   133.2 -999
2001-08-21 06:26:53 51°13.678 2°55.923 127.8   104.5 5.8
2001-08-21 06:27:53 51°13.678 2°55.923 128   56.3 5.8
2001-08-21 06:28:53 51°13.678 2°55.923 128   50.8 5.8
2001-08-21 06:29:53 51°13.678 2°55.923 128   337.1 5.8
2001-08-21 06:30:53 51°13.678 2°55.923 128   326.9 5.8
2001-08-21 06:31:53 51°13.678 2°55.922 128   352 5.8
2001-08-21 06:32:53 51°13.678 2°55.922 128   89.6 5.6
2001-08-21 06:33:53 51°13.678 2°55.922 128.2   174.3 5.7
2001-08-21 06:34:53 51°13.678 2°55.923 128.3   159.9 -999
2001-08-21 06:35:53 51°13.678 2°55.923 129.2   108.2 5.6
2001-08-21 06:36:53 51°13.677 2°55.923 131   264.5 5.5
2001-08-21 06:37:53 51°13.677 2°55.923 131.5   46.9 5.6
2001-08-21 06:38:53 51°13.677 2°55.923 131.5   43.6 -999
2001-08-21 06:39:53 51°13.677 2°55.924 129.5 0.1 91.4 -999
2001-08-21 06:40:53 51°13.676 2°55.924 120.8   172.5 5.6
2001-08-21 06:41:53 51°13.676 2°55.923 113.7 0.2 286 5.7
2001-08-21 06:42:53 51°13.686 2°55.882 114.5 3.3 293.2 -999
2001-08-21 06:43:53 51°13.706 2°55.794 101.3 3.3 284.7 8.4
2001-08-21 06:44:53 51°13.711 2°55.724 84.3 2.3 271.5 10.5
2001-08-21 06:45:53 51°13.737 2°55.733 20.5 1.9 14.7 8
2001-08-21 06:46:53 51°13.734 2°55.725 352.5 2.6 347.3 -999
2001-08-21 06:47:53 51°13.805 2°55.662 332.5 4.9 328.8 9.8
2001-08-21 06:48:53 51°13.877 2°55.605 339.2 5 334.9 8.6
2001-08-21 06:49:53 51°13.956 2°55.549 341 5.2 337.1 9.2
2001-08-21 06:50:53 51°14.036 2°55.493 340.2 5.2 336 9.2
2001-08-21 06:51:53 51°14.121 2°55.428 337.7 6 333.4 9.1
2001-08-21 06:52:53 51°14.211 2°55.338 325.5 6.9 322.2 8.9
2001-08-21 06:53:53 51°14.304 2°55.192 315.3 8.5 311.1 9
2001-08-21 06:54:53 51°14.395 2°54.996 300 9.7 298.3 9.4
2001-08-21 06:55:53 51°14.418 2°54.708 280 11.9 273.8 9.3
2001-08-21 06:56:53 51°14.41 2°54.358 262.3 14 258 8.3
2001-08-21 06:57:53 51°14.319 2°54.014 245.7 14.2 242.9 8
2001-08-21 06:58:53 51°14.216 2°53.675 246.3 14.3 243.3 7.8
2001-08-21 06:59:53 51°14.091 2°53.35 241.3 14.4 238.5 8.3
2001-08-21 07:00:53 51°13.976 2°53.011 244.3 14.7 241.1 8.8
2001-08-21 07:01:53 51°13.855 2°52.669 246.2 14.8 242.5 9
2001-08-21 07:02:53 51°13.73 2°52.329 237.8 14.9 235.6 9.1
2001-08-21 07:03:53 51°13.601 2°51.995 242.3 14.8 239.5 9.2
2001-08-21 07:04:53 51°13.482 2°51.652 245.2 14.8 242.3 9.2
2001-08-21 07:05:53 51°13.363 2°51.308 243.5 14.8 240.7 9.3
2001-08-21 07:06:53 51°13.249 2°50.96 245.8 14.9 242.5 9.6
2001-08-21 07:07:53 51°13.135 2°50.61 247.2 14.9 243.8 9.6
2001-08-21 07:08:53 51°13.023 2°50.257 244.8 14.9 241.7 9.8
2001-08-21 07:09:53 51°12.905 2°49.908 245.5 14.9 242.3 9.9
2001-08-21 07:10:53 51°12.783 2°49.563 242.5 14.9 240.1 10.1
2001-08-21 07:11:53 51°12.663 2°49.216 243.2 15 240.8 10.2
2001-08-21 07:12:53 51°12.543 2°48.872 247.3 14.9 243.9 10.4
2001-08-21 07:13:53 51°12.429 2°48.522 246.5 14.9 243.2 10.5
2001-08-21 07:14:53 51°12.321 2°48.167 248.7 14.9 245.6 10.7
2001-08-21 07:15:53 51°12.217 2°47.81 251 14.8 247.4 10.9
2001-08-21 07:16:53 51°12.108 2°47.457 246.2 14.9 243.3 11
2001-08-21 07:17:53 51°12.008 2°47.097 251 14.9 247.9 11
2001-08-21 07:18:53 51°11.911 2°46.734 248.7 14.9 245.8 11
2001-08-21 07:19:53 51°11.807 2°46.375 249 14.9 246.2 11.2
2001-08-21 07:20:53 51°11.701 2°46.017 248.8 14.9 245.9 11.2
2001-08-21 07:21:53 51°11.603 2°45.654 248.8 14.9 246.2 11.1
2001-08-21 07:22:53 51°11.508 2°45.29 249.3 14.9 246.8 10.9
2001-08-21 07:23:53 51°11.409 2°44.928 248.2 14.9 245.5 10.8
2001-08-21 07:24:53 51°11.313 2°44.565 250 14.9 247.4 10.8
2001-08-21 07:25:53 51°11.22 2°44.2 252.7 14.9 249.6 10.7
2001-08-21 07:26:53 51°11.132 2°43.832 251.7 14.8 249.1 10.6
2001-08-21 07:27:53 51°11.057 2°43.458 256.2 14.8 253.2 10.6
2001-08-21 07:28:53 51°10.983 2°43.084 254 14.8 251.2 10.7
2001-08-21 07:29:53 51°10.9 2°42.714 252 14.8 249.4 10.6
2001-08-21 07:30:53 51°10.819 2°42.345 254.5 14.8 251.4 10.4
2001-08-21 07:31:53 51°10.731 2°41.979 251.5 14.8 249.1 10.4
2001-08-21 07:32:53 51°10.639 2°41.615 249.2 14.8 247.4 10.4
2001-08-21 07:33:53 51°10.552 2°41.249 251.3 14.8 249.1 10.4
2001-08-21 07:34:53 51°10.463 2°40.884 250.8 14.8 248.8 10.5
2001-08-21 07:35:53 51°10.369 2°40.52 249.7 14.8 247.5 10.6
2001-08-21 07:36:53 51°10.28 2°40.156 250.3 14.8 248.5 10.6
2001-08-21 07:37:53 51°10.187 2°39.793 249 14.8 247.2 10.8
2001-08-21 07:38:53 51°10.098 2°39.428 249.8 14.8 248 11.2
2001-08-21 07:39:53 51°10.008 2°39.063 250.2 14.8 248.2 11.4
2001-08-21 07:40:53 51°9.915 2°38.701 249.3 14.8 247.4 11.8
2001-08-21 07:41:53 51°9.823 2°38.337 251 14.8 248.7 12.1
2001-08-21 07:42:53 51°9.732 2°37.973 249.3 14.8 247 12.6
2001-08-21 07:43:53 51°9.638 2°37.61 250 14.8 247.8 13
2001-08-21 07:44:53 51°9.547 2°37.244 251 15 248.3 13.6
2001-08-21 07:45:53 51°9.452 2°36.879 249 14.9 247.3 14
2001-08-21 07:46:53 51°9.358 2°36.512 250.5 14.9 248.8 14.1
2001-08-21 07:47:53 51°9.279 2°36.198 244.8 9.6 244.3 14.3
2001-08-21 07:48:53 51°9.251 2°36.065 289.7 2.5 264.5 14.2
2001-08-21 07:49:53 51°9.236 2°36.039 307.5 1.2 227.8 -999
2001-08-21 07:50:53 51°9.224 2°36.012 303.3 1.3 233.9 -999
2001-08-21 07:51:53 51°9.213 2°35.983 302 1.2 240.7 -999
2001-08-21 07:52:55 51°9.204 2°35.952 303.5 1.2 245.5 -999
2001-08-21 07:53:53 51°9.198 2°35.916 308.5 2 273.1 14.3
2001-08-21 07:54:53 51°9.243 2°35.81 330.3 5.4 311.3 14.6
2001-08-21 07:55:53 51°9.31 2°35.713 338.5 4.8 318.2 14.5
2001-08-21 07:56:53 51°9.357 2°35.645 346.5 3.3 318 15.1
2001-08-21 07:57:53 51°9.394 2°35.591 344.3 3.1 315.4 14.9
2001-08-21 07:58:53 51°9.425 2°35.532 336.7 2.8 304.9 15.3
2001-08-21 07:59:53 51°9.447 2°35.472 329.3 2.5 295.5 15.9
2001-08-21 08:00:53 51°9.462 2°35.414 328.5 2.3 292.3 16.1
2001-08-21 08:01:53 51°9.475 2°35.359 328.2 2.1 288.6 15.6
2001-08-21 08:02:53 51°9.485 2°35.306 326.8 2 285.6 16.2
2001-08-21 08:03:53 51°9.493 2°35.254 326 2 282.9 16.5
2001-08-21 08:04:53 51°9.491 2°35.216 323.3 1.3 256.8 16.6
2001-08-21 08:05:53 51°9.486 2°35.182 324 1.3 258.2 16.6
2001-08-21 08:06:53 51°9.52 2°35.123 351.7 6.2 333.9 16.5
2001-08-21 08:07:53 51°9.676 2°35.169 28.3 11.7 19.4 17
2001-08-21 08:08:53 51°9.866 2°35.286 31.5 12.3 23.5 15.5
2001-08-21 08:09:53 51°10.056 2°35.41 28.7 12.3 22.2 9.6
2001-08-21 08:10:53 51°10.238 2°35.562 35 12.4 29.7 9.3
2001-08-21 08:11:53 51°10.417 2°35.73 35.2 12.5 30.4 9.2
2001-08-21 08:12:53 51°10.59 2°35.903 41.8 12.2 37.4 8.8
2001-08-21 08:13:53 51°10.737 2°36.132 49.2 12.3 46 9.5
2001-08-21 08:14:53 51°10.88 2°36.366 48.7 12.3 45.3 9.9
2001-08-21 08:15:53 51°11.025 2°36.597 51 12.3 47.6 10.4
2001-08-21 08:16:53 51°11.164 2°36.836 49 12.3 45.6 11
2001-08-21 08:17:53 51°11.301 2°37.078 51.7 12.3 48.4 11.6
2001-08-21 08:18:53 51°11.43 2°37.33 53.3 12.3 50.5 11.8
2001-08-21 08:19:53 51°11.557 2°37.582 54.5 12.2 51.6 12.1
2001-08-21 08:20:53 51°11.684 2°37.835 54.5 12.2 51.5 12.2
2001-08-21 08:21:53 51°11.809 2°38.09 55.3 12.2 52.3 12
2001-08-21 08:22:53 51°11.936 2°38.342 54.3 12.2 51.1 11.8
2001-08-21 08:23:53 51°12.062 2°38.595 55.8 12.2 52.6 11.6
2001-08-21 08:24:53 51°12.186 2°38.85 55.3 12.2 52 11.4
2001-08-21 08:25:53 51°12.313 2°39.101 53.5 12.2 50 11.2
2001-08-21 08:26:53 51°12.439 2°39.352 55 12.2 51.5 11.2
2001-08-21 08:27:53 51°12.565 2°39.603 53.8 12.2 50.2 11.4
2001-08-21 08:28:53 51°12.691 2°39.855 53.7 12.1 50.1 11.2
2001-08-21 08:29:53 51°12.816 2°40.107 54.2 12.1 50.7 11.7
2001-08-21 08:30:53 51°12.941 2°40.359 54.8 11.9 51.7 11.8
2001-08-21 08:31:53 51°13.06 2°40.618 56.2 12.1 52.9 11.9
2001-08-21 08:32:53 51°13.183 2°40.871 54.7 12.1 51.2 11.7
2001-08-21 08:33:53 51°13.308 2°41.123 55.5 12.1 51.9 12
2001-08-21 08:34:53 51°13.435 2°41.373 54.3 12.1 50.8 12.7
2001-08-21 08:35:53 51°13.556 2°41.632 56.3 12.1 53 13
2001-08-21 08:36:53 51°13.681 2°41.882 53.5 12.2 49.5 13.5
2001-08-21 08:37:53 51°13.815 2°42.122 53.3 12.1 49.1 13.9
2001-08-21 08:38:53 51°13.941 2°42.372 56.7 12 52.7 14.2
2001-08-21 08:39:53 51°14.06 2°42.63 57.5 12.1 53.6 14.4
2001-08-21 08:40:53 51°14.174 2°42.889 60.3 12 56.8 14.5
2001-08-21 08:41:53 51°14.284 2°43.155 60.7 12 57.2 14.8
2001-08-21 08:42:53 51°14.394 2°43.42 57.5 12 53.8 15.1
2001-08-21 08:43:53 51°14.51 2°43.682 58.7 12 54.9 15.2
2001-08-21 08:44:53 51°14.623 2°43.945 59.3 12 55.4 15.1
2001-08-21 08:45:53 51°14.731 2°44.215 60.7 12 57.2 14.7
2001-08-21 08:46:53 51°14.839 2°44.484 60.5 12 56.9 14.9
2001-08-21 08:47:53 51°14.945 2°44.755 62.3 12.1 58.9 14.9
2001-08-21 08:48:53 51°15.053 2°45.028 60 12.2 56 15
2001-08-21 08:49:53 51°15.164 2°45.293 61 12.1 57 15.1
2001-08-21 08:50:53 51°15.269 2°45.567 62.7 12.1 58.8 14.5
2001-08-21 08:51:53 51°15.385 2°45.833 59.8 12.2 55.4 15
2001-08-21 08:52:53 51°15.498 2°46.099 61 12.1 56.8 15.2
2001-08-21 08:53:53 51°15.608 2°46.369 61.7 12.2 57.4 15.4
2001-08-21 08:54:53 51°15.721 2°46.641 60.2 12.3 55.8 15.6
2001-08-21 08:55:53 51°15.836 2°46.911 61.5 12.3 57.1 15.6
2001-08-21 08:56:53 51°15.945 2°47.188 62.5 12.4 58.7 15.5
2001-08-21 08:57:53 51°16.05 2°47.472 64.3 12.4 60.6 14.8
2001-08-21 08:58:53 51°16.148 2°47.763 66.3 12.5 62.9 14.3
2001-08-21 08:59:53 51°16.237 2°48.06 67.3 12.4 64.7 14
2001-08-21 09:00:53 51°16.302 2°48.372 75.2 12.4 73.8 14.1
2001-08-21 09:01:53 51°16.357 2°48.69 76.3 12.5 75.1 14.3
2001-08-21 09:02:53 51°16.41 2°49.009 75.8 12.4 75 14.3
2001-08-21 09:03:53 51°16.464 2°49.326 76.5 12.4 76.1 13.8
2001-08-21 09:04:53 51°16.538 2°49.627 53.8 12 51.8 12.9
2001-08-21 09:05:53 51°16.718 2°49.76 23 12.2 16 12.4
2001-08-21 09:06:53 51°16.913 2°49.837 18.7 12 12 8.3
2001-08-21 09:07:53 51°17.106 2°49.895 18.5 12 11.5 8.5
2001-08-21 09:08:53 51°17.304 2°49.952 13.7 12.3 6 9.8
2001-08-21 09:09:53 51°17.509 2°49.969 12.3 12.3 3.8 11.5
2001-08-21 09:10:53 51°17.711 2°50.007 18 12.1 9.8 12
2001-08-21 09:11:53 51°17.893 2°50.132 34.7 12 29 12.2
2001-08-21 09:12:53 51°18.055 2°50.317 40.7 12 36.4 12.5
2001-08-21 09:13:53 51°18.206 2°50.523 46.5 12 42.9 12.6
2001-08-21 09:14:53 51°18.357 2°50.732 43.2 12 38.8 12.9
2001-08-21 09:15:53 51°18.495 2°50.93 50.2 8.7 46.5 13
2001-08-21 09:16:53 51°18.528 2°51.03 47 0.8 59.6 13.1
2001-08-21 09:17:53 51°18.526 2°51.02 19.2 0.6 257.7 13.1
2001-08-21 09:18:53 51°18.523 2°51.001 15.7 0.8 252.3 13.2
2001-08-21 09:19:53 51°18.518 2°50.982 17.8 0.8 248.1 13.2
2001-08-21 09:20:53 51°18.517 2°50.962 16.5 1.2 332.9 13.2
2001-08-21 09:21:53 51°18.563 2°50.936 356.7 2.7 329.1 13.5
2001-08-21 09:22:53 51°18.571 2°50.901 337.7 1.5 214.2 13.6
2001-08-21 09:23:53 51°18.553 2°50.876 333 1.4 224 8.8
2001-08-21 09:24:53 51°18.537 2°50.847 329.2 1.4 233.1 10.5
2001-08-21 09:25:53 51°18.556 2°50.797 349.7 3.3 321.4 13.5
2001-08-21 09:26:53 51°18.589 2°50.758 2.2 2 324.7 13.6
2001-08-21 09:27:53 51°18.61 2°50.728 0.7 1.5 311.1 13.8
2001-08-21 09:28:53 51°18.623 2°50.694 353.2 1.5 295.5 13.7
2001-08-21 09:29:53 51°18.63 2°50.655 345.8 1.5 282.1 13.9
2001-08-21 09:30:53 51°18.634 2°50.615 340.8 1.5 273.6 13.9
2001-08-21 09:31:53 51°18.633 2°50.572 336.5 1.6 266.9 13.9
2001-08-21 09:32:53 51°18.631 2°50.531 333.5 1.6 262.4 13.8
2001-08-21 09:33:53 51°18.631 2°50.486 335.5 2 282.4 13.7
2001-08-21 09:34:53 51°18.646 2°50.429 340.5 2.5 299.1 13.8
2001-08-21 09:35:53 51°18.673 2°50.376 349.3 2.6 312.8 13.7
2001-08-21 09:36:53 51°18.707 2°50.327 355.7 2.8 322.8 13.6
2001-08-21 09:37:53 51°18.748 2°50.286 0.5 3 331.5 13.4
2001-08-21 09:38:53 51°18.793 2°50.25 0.2 3.1 333 13.4
2001-08-21 09:39:53 51°18.84 2°50.214 4.2 3.1 337.6 13.1
2001-08-21 09:40:53 51°18.886 2°50.199 20.3 2.7 359.1 12.8
2001-08-21 09:41:53 51°18.929 2°50.209 26.2 2.6 10 12.5
2001-08-21 09:42:53 51°18.974 2°50.221 25 2.8 8.8 12.6
2001-08-21 09:43:53 51°19.019 2°50.232 25.2 2.8 8.8 12.4
2001-08-21 09:44:53 51°19.064 2°50.246 28.5 2.7 13.6 12.3
2001-08-21 09:45:53 51°19.109 2°50.262 26.7 2.8 12.1 12.2
2001-08-21 09:46:53 51°19.156 2°50.27 21.2 2.9 4.4 12.1
2001-08-21 09:47:53 51°19.205 2°50.276 22.2 2.9 5.3 12
2001-08-21 09:48:53 51°19.254 2°50.282 21 3 4.2 11.7
2001-08-21 09:49:53 51°19.304 2°50.286 18.7 3 1.2 11.3
2001-08-21 09:50:53 51°19.354 2°50.288 19.2 3 1.7 11.5
2001-08-21 09:51:53 51°19.404 2°50.292 22 3 5.3 11.4
2001-08-21 09:52:53 51°19.453 2°50.303 24.3 3 8.7 11.5
2001-08-21 09:53:53 51°19.503 2°50.316 23.8 3 8.5 11.5
2001-08-21 09:54:53 51°19.554 2°50.321 16 3.1 358.6 11.8
2001-08-21 09:55:53 51°19.607 2°50.316 15 3.2 356.6 12.1
2001-08-21 09:56:53 51°19.66 2°50.305 11.5 3.3 352.3 12.6
2001-08-21 09:57:53 51°19.713 2°50.298 14.2 3.2 354.9 13
2001-08-21 09:58:53 51°19.766 2°50.29 15.8 3.2 355.9 13.4
2001-08-21 09:59:53 51°19.819 2°50.283 13.3 3.2 352.2 13.6
2001-08-21 10:00:53 51°19.872 2°50.269 12.7 3.2 349.5 13.5
2001-08-21 10:01:53 51°19.924 2°50.253 13.2 3.2 348.8 13.6
2001-08-21 10:02:53 51°19.975 2°50.237 15.2 3.1 350.8 14
2001-08-21 10:03:53 51°20.024 2°50.233 24.5 2.8 1.3 14.5
2001-08-21 10:04:53 51°20.067 2°50.242 31.3 2.6 10.8 14.9
2001-08-21 10:05:53 51°20.112 2°50.25 24 2.7 2.2 15.3
2001-08-21 10:06:53 51°20.156 2°50.257 32.2 2.6 11.6 15.7
2001-08-21 10:07:53 51°20.196 2°50.277 34.7 2.6 16.2 16.1
2001-08-21 10:08:53 51°20.239 2°50.294 32.3 2.7 12.4 16.4
2001-08-21 10:09:53 51°20.284 2°50.307 30.8 2.7 9 16.8
2001-08-21 10:10:53 51°20.36 2°50.335 27.3 6.2 13.9 17.4
2001-08-21 10:11:53 51°20.394 2°50.338 66.2 0.5 241.4 17.9
2001-08-21 10:12:53 51°20.38 2°50.309 86.3 1.8 239.2 18
2001-08-21 10:13:53 51°20.365 2°50.269 93.7 1.7 238.2 18
2001-08-21 10:14:53 51°20.35 2°50.231 100 1.7 236.9 10.8
2001-08-21 10:15:53 51°20.334 2°50.195 105.8 1.6 235.8 18.1
2001-08-21 10:16:53 51°20.317 2°50.174 109 1.8 145.7 18
2001-08-21 10:17:53 51°20.326 2°50.22 45.8 0.7 10.9 17.8
2001-08-21 10:18:53 51°20.326 2°50.196 21.8 1.1 267.9 17.9
2001-08-21 10:19:53 51°20.325 2°50.163 12 1.3 265 18.2
2001-08-21 10:20:53 51°20.321 2°50.125 6.7 1.5 262.2 18.4
2001-08-21 10:21:53 51°20.321 2°50.087 12.2 1.4 274.3 18.5
2001-08-21 10:22:53 51°20.325 2°50.051 14.3 1.4 287.1 18.9
2001-08-21 10:23:53 51°20.334 2°50.014 10.3 1.6 293.7 19.1
2001-08-21 10:24:53 51°20.344 2°49.978 21 1.4 294.2 19.5
2001-08-21 10:25:53 51°20.351 2°49.944 20 1.4 285.8 19.7
2001-08-21 10:26:53 51°20.356 2°49.905 12.7 1.6 278.1 19.9
2001-08-21 10:27:53 51°20.342 2°49.86 12 2.2 235.5 20.1
2001-08-21 10:28:53 51°20.324 2°49.814 7.7 2 238.3 20.1
2001-08-21 10:29:53 51°20.307 2°49.769 4 1.9 239.5 20.2
2001-08-21 10:30:53 51°20.302 2°49.725 1.2 2 297.2 20.4
2001-08-21 10:31:53 51°20.412 2°49.69 12.7 10.5 358.2 21.6
2001-08-21 10:32:53 51°20.609 2°49.703 18.7 12.1 5.7 22.5
2001-08-21 10:33:53 51°20.814 2°49.703 12.8 12.4 359.6 22.9
2001-08-21 10:34:53 51°21.021 2°49.711 13.7 12.4 1.2 23
2001-08-21 10:35:53 51°21.227 2°49.725 15 12.4 2.6 22.2
2001-08-21 10:36:53 51°21.433 2°49.737 13.5 12.5 1.2 21.5
2001-08-21 10:37:53 51°21.636 2°49.752 13 12.2 1.8 21.9
2001-08-21 10:38:53 51°21.842 2°49.74 10.2 12.3 358.4 22.7
2001-08-21 10:39:53 51°22.047 2°49.731 8.8 12.4 357.4 23
2001-08-21 10:40:53 51°22.18 2°49.68 346.8 6.2 328.4 23.6
2001-08-21 10:41:53 51°22.215 2°49.619 16.2 1.6 262.9 23.3
2001-08-21 10:42:53 51°22.206 2°49.58 33.3 1.5 248.5 23.3
2001-08-21 10:43:53 51°22.197 2°49.545 40.3 1.4 246.9 23.5
2001-08-21 10:44:53 51°22.188 2°49.512 43.3 1.3 245.9 23.4
2001-08-21 10:45:53 51°22.179 2°49.479 47.3 1.3 244.7 23.3
2001-08-21 10:46:53 51°22.169 2°49.448 52.5 1.3 243.4 23.3
2001-08-21 10:47:53 51°22.158 2°49.418 59.5 1.3 239.4 23.4
2001-08-21 10:48:53 51°22.147 2°49.388 66.7 1.3 236.2 23.5
2001-08-21 10:49:53 51°22.134 2°49.36 73.5 1.3 234.1 23.5
2001-08-21 10:50:53 51°22.121 2°49.33 79.7 1.4 232.6 23.5
2001-08-21 10:51:53 51°22.107 2°49.301 86 1.4 230.4 23.4
2001-08-21 10:52:53 51°22.091 2°49.272 93.2 1.4 230.2 23.5
2001-08-21 10:53:53 51°22.076 2°49.242 99.5 1.5 229.3 23.4
2001-08-21 10:54:53 51°22.064 2°49.235 74.3 0.7 109 23.3
2001-08-21 10:55:53 51°22.088 2°49.258 32.7 2.6 11.7 23.5
2001-08-21 10:56:53 51°22.146 2°49.239 5.2 4.2 340.6 23.5
2001-08-21 10:57:53 51°22.215 2°49.209 20.7 4.1 356 23.4
2001-08-21 10:58:53 51°22.267 2°49.241 55.3 2.7 41.4 23
2001-08-21 10:59:53 51°22.281 2°49.286 75.5 1.6 79 23.4
2001-08-21 11:00:53 51°22.28 2°49.324 78.7 1.4 92.9 23.8
2001-08-21 11:01:53 51°22.281 2°49.356 73.5 1.1 85.2 23.5
2001-08-21 11:02:53 51°22.282 2°49.386 76.2 1.1 90.8 23.6
2001-08-21 11:03:54 51°22.28 2°49.416 80.3 1.2 99.6 23.6
2001-08-21 11:04:53 51°22.275 2°49.446 82.2 1.2 104 23.5
2001-08-21 11:05:53 51°22.271 2°49.479 79.3 1.2 99.7 23.4
2001-08-21 11:06:53 51°22.27 2°49.51 75.3 1.2 92.3 23.5
2001-08-21 11:07:53 51°22.27 2°49.541 75 1.2 89.6 23.5
2001-08-21 11:08:54 51°22.268 2°49.575 79 1.2 96.5 23.4
2001-08-21 11:09:53 51°22.265 2°49.608 81.2 1.3 100.3 23.1
2001-08-21 11:10:53 51°22.263 2°49.641 75.3 1.3 90.9 23.3
2001-08-21 11:11:53 51°22.284 2°49.744 64.3 6.7 63.1 23.1
2001-08-21 11:12:53 51°22.33 2°49.824 32.2 2.3 13.5 23.6
2001-08-21 11:13:53 51°22.339 2°49.802 7 1.2 280.3 23.8
2001-08-21 11:14:53 51°22.342 2°49.765 348.3 1.4 272.8 23.8
2001-08-21 11:15:53 51°22.342 2°49.726 344.5 1.5 268.7 23.9
2001-08-21 11:16:53 51°22.36 2°49.689 12.5 3 344.2 23.9
2001-08-21 11:17:53 51°22.404 2°49.686 32.3 2.1 2.7 23.3
2001-08-21 11:18:53 51°22.429 2°49.691 41.8 1.4 10.7 23.8
2001-08-21 11:19:54 51°22.454 2°49.701 40.8 1.5 13.4 23.1
2001-08-21 11:20:53 51°22.475 2°49.707 41.7 1.1 7 22
2001-08-21 11:21:53 51°22.49 2°49.708 43.7 0.7 359.3 21.2
2001-08-21 11:22:53 51°22.499 2°49.706 46.3 0.5 351.5 21.2
2001-08-21 11:23:53 51°22.504 2°49.703 44.8 0.3 327.5 20.7
2001-08-21 11:24:53 51°22.509 2°49.696 40.3 0.3 305.9 20.7
2001-08-21 11:25:53 51°22.502 2°49.68 46.2 0.8 232 21.2
2001-08-21 11:26:53 51°22.493 2°49.665 55 0.7 224.8 22
2001-08-21 11:27:53 51°22.485 2°49.655 64.5 0.7 216.4 22.4
2001-08-21 11:28:53 51°22.476 2°49.644 72.5 0.7 211.3 22.7
2001-08-21 11:29:53 51°22.471 2°49.654 65.5 2 69.9 22.8
2001-08-21 11:30:53 51°22.586 2°49.712 2.3 10.9 356 20.8
2001-08-21 11:31:53 51°22.787 2°49.656 354.2 12.6 346.7 16.5
2001-08-21 11:32:53 51°22.992 2°49.592 357.8 12.6 350.2 16.8
2001-08-21 11:33:53 51°23.197 2°49.535 358.2 12.5 349.4 18.9
2001-08-21 11:34:53 51°23.402 2°49.466 355 12.7 345.3 20.7
2001-08-21 11:35:53 51°23.606 2°49.383 355.7 12.7 346.1 23
2001-08-21 11:36:53 51°23.811 2°49.299 355.5 12.7 345.8 22.9
2001-08-21 11:37:53 51°24.016 2°49.211 355.3 12.8 345.5 23
2001-08-21 11:38:53 51°24.165 2°49.149 3.2 5.9 348.4 23.4
2001-08-21 11:39:53 51°24.191 2°49.147 56.5 0.1 69 23.8
2001-08-21 11:40:53 51°24.186 2°49.15 67.2 0.5 174.3 23.9
2001-08-21 11:41:54 51°24.176 2°49.15 70.3 0.6 184.7 23.9
2001-08-21 11:42:53 51°24.166 2°49.148 68.8 0.6 183 23.6
2001-08-21 11:43:53 51°24.165 2°49.158 48.5 0.6 57.8 23.5
2001-08-21 11:44:53 51°24.171 2°49.167 39.7 0.4 26.5 23.7
2001-08-21 11:45:53 51°24.178 2°49.168 33.2 0.4 352.5 23.7
2001-08-21 11:46:53 51°24.183 2°49.166 34.5 0.3 346.8 23.7
2001-08-21 11:47:53 51°24.187 2°49.164 35.2 0.3 345.1 23.7
2001-08-21 11:48:53 51°24.192 2°49.163 34.8 0.3 348.2 23.9
2001-08-21 11:49:53 51°24.196 2°49.161 33.7 0.3 342.9 23.9
2001-08-21 11:50:53 51°24.201 2°49.159 32 0.3 342 23.8
2001-08-21 11:51:53 51°24.205 2°49.157 32 0.3 346.9 23.8
2001-08-21 11:52:53 51°24.21 2°49.155 30.3 0.3 351.3 23.9
2001-08-21 11:53:53 51°24.215 2°49.154 29.7 0.3 347.8 23.6
2001-08-21 11:54:53 51°24.219 2°49.15 27.2 0.3 325 23.7
2001-08-21 11:55:53 51°24.222 2°49.145 26 0.2 307.5 23.7
2001-08-21 11:56:53 51°24.224 2°49.14 26 0.2 301.4 23.8
2001-08-21 11:57:53 51°24.221 2°49.135 28.5 0.5 217.5 23.8
2001-08-21 11:58:53 51°24.214 2°49.128 32.8 0.4 213 24.1
2001-08-21 11:59:52 51°24.209 2°49.122 34.5 0.4 208.3 24
2001-08-21 12:00:53 51°24.203 2°49.118 35.5 0.3 204.4 24.1
2001-08-21 12:01:53 51°24.198 2°49.116 38.5 0.3 181.3 24
2001-08-21 12:02:52 51°24.211 2°49.132 31.5 2.1 30.1 23.9
2001-08-21 12:03:53 51°24.261 2°49.153 8.3 4.1 2.4 23.8
2001-08-21 12:04:53 51°24.347 2°49.144 359.7 5.7 353.1 23.7
2001-08-21 12:05:53 51°24.446 2°49.123 359.3 6.2 352.4 22.2
2001-08-21 12:06:53 51°24.578 2°49.079 354.8 9.8 348.6 23.2
2001-08-21 12:07:53 51°24.749 2°49.027 356.5 10.7 350 23.4
2001-08-21 12:08:53 51°24.924 2°48.963 351.7 10.8 345.3 22.9
2001-08-21 12:09:53 51°25.092 2°48.896 350 9.3 344.4 25
2001-08-21 12:10:53 51°25.205 2°48.845 348 6.2 342.1 26.2
2001-08-21 12:11:53 51°25.295 2°48.8 354 5.4 347.1 27.6
2001-08-21 12:12:53 51°25.38 2°48.775 354.7 5.1 348.7 27.4
2001-08-21 12:13:53 51°25.463 2°48.733 343 5.9 337.6 26.4
2001-08-21 12:14:53 51°25.629 2°48.632 345.5 12.7 339.7 25.4
2001-08-21 12:15:53 51°25.836 2°48.526 348 13.1 342.9 25.1
2001-08-21 12:16:53 51°26.036 2°48.441 349.7 10.5 344.8 23.3
2001-08-21 12:17:53 51°26.126 2°48.366 343.7 3.4 332.9 24.9
2001-08-21 12:18:53 51°26.133 2°48.356 19 0.2 236.8 24.4
2001-08-21 12:19:53 51°26.13 2°48.353 26.5 0.2 192.9 24.9
2001-08-21 12:20:53 51°26.127 2°48.353 30.2 0.2 177.1 24.9
2001-08-21 12:21:53 51°26.124 2°48.354 30.2 0.2 158.1 24.9
2001-08-21 12:22:53 51°26.127 2°48.367 45 2 50.7 24.7
2001-08-21 12:23:53 51°26.155 2°48.438 59.3 3.7 61.8 23.7
2001-08-21 12:24:53 51°26.174 2°48.513 68.5 2.7 73.6 23.3
2001-08-21 12:25:53 51°26.187 2°48.579 62.5 2.5 69.5 23.2
2001-08-21 12:26:53 51°26.201 2°48.635 56.8 2 66 25.5
2001-08-21 12:27:53 51°26.213 2°48.678 55 1.7 65.9 24.4
2001-08-21 12:28:53 51°26.223 2°48.716 60.2 1.5 72.4 25.4
2001-08-21 12:29:53 51°26.229 2°48.753 63.7 1.4 77.3 25.4
2001-08-21 12:30:53 51°26.233 2°48.789 65.2 1.3 79.8 25.2
2001-08-21 12:31:52 51°26.237 2°48.822 63.5 1.2 79.5 23.4
2001-08-21 12:32:53 51°26.237 2°48.843 63.3 0.6 101.7 22.4
2001-08-21 12:33:53 51°26.235 2°48.859 62.8 0.6 95.3 23.6
2001-08-21 12:34:53 51°26.234 2°48.878 64 0.9 89.9 25.4
2001-08-21 12:35:53 51°26.226 2°48.949 120.5 3.7 117 25.2
2001-08-21 12:36:53 51°26.168 2°48.998 187.8 4.2 177.2 25.5
2001-08-21 12:37:53 51°26.117 2°48.937 256.8 3.9 246.6 25.4
2001-08-21 12:38:52 51°26.139 2°48.849 326 3.9 324.4 25.2
2001-08-21 12:39:53 51°26.228 2°48.803 344 6.7 342.7 25.2
2001-08-21 12:40:53 51°26.342 2°48.742 345 7.5 342.3 22.4
2001-08-21 12:41:53 51°26.465 2°48.692 349 7.6 346.4 21.7
2001-08-21 12:42:53 51°26.589 2°48.648 350.5 7.7 347.7 23.7
2001-08-21 12:43:53 51°26.717 2°48.611 353.2 7.8 351.1 24.7
2001-08-21 12:44:53 51°26.888 2°48.558 355.5 12.8 352.1 25.2
2001-08-21 12:45:53 51°27.11 2°48.507 354.8 13.6 351.5 27.3
2001-08-21 12:46:53 51°27.334 2°48.458 357 13.7 353.7 28.7
2001-08-21 12:47:53 51°27.563 2°48.433 356.2 13.8 354.9 29.4
2001-08-21 12:48:53 51°27.79 2°48.398 355.3 13.7 354.2 29.8
2001-08-21 12:49:53 51°28.014 2°48.35 349 13.4 348.6 32.5
2001-08-21 12:50:53 51°28.214 2°48.297 349.3 9.2 351.7 31.4
2001-08-21 12:51:53 51°28.299 2°48.284 7.2 3 20 30.8
2001-08-21 12:52:53 51°28.311 2°48.312 42 1.1 65 31.4
2001-08-21 12:53:53 51°28.32 2°48.338 46.5 1.2 63.9 8.2
2001-08-21 12:54:53 51°28.329 2°48.368 50.2 1.3 64.2 31.2
2001-08-21 12:55:53 51°28.338 2°48.4 56 1.3 65.1 30.5
2001-08-21 12:56:53 51°28.347 2°48.434 64.2 1.4 66 28.7
2001-08-21 12:57:53 51°28.357 2°48.469 72.2 1.5 67.5 28.5
2001-08-21 12:58:53 51°28.366 2°48.507 80 1.6 69.3 28.8
2001-08-21 12:59:53 51°28.378 2°48.56 75.5 2.5 71 29.8
2001-08-21 13:00:53 51°28.392 2°48.621 71.7 2.4 70.4 28.4
2001-08-21 13:01:53 51°28.404 2°48.681 72.3 2.4 70.9 29.1
2001-08-21 13:02:53 51°28.417 2°48.739 72.2 2.3 71.2 30.9
2001-08-21 13:03:53 51°28.429 2°48.796 70.8 2.2 69.8 33.2
2001-08-21 13:04:53 51°28.443 2°48.85 69.3 2.2 68.2 29.3
2001-08-21 13:05:55 51°28.458 2°48.907 68.5 2.3 68.5 27.8
2001-08-21 13:06:53 51°28.472 2°48.961 68.3 2.2 68.8 33.5
2001-08-21 13:07:53 51°28.485 2°49.013 63.5 2.1 66.9 35.9
2001-08-21 13:08:53 51°28.5 2°49.063 54.8 2.2 60.1 34.9
2001-08-21 13:09:55 51°28.599 2°49.126 2.2 10 6.7 33.1
2001-08-21 13:10:53 51°28.808 2°49.091 345.2 13.7 347.7 30.4
2001-08-21 13:11:53 51°29.029 2°48.992 339 13.7 341.5 29.5
2001-08-21 13:12:53 51°29.246 2°48.876 334.2 13.5 337.2 29.4
2001-08-21 13:13:53 51°29.455 2°48.742 337 13.6 338.9 27.2
2001-08-21 13:14:53 51°29.667 2°48.617 341.3 13.6 342.9 24.6
2001-08-21 13:15:53 51°29.863 2°48.452 328.7 13.4 330.5 24
2001-08-21 13:16:55 51°30.066 2°48.278 332 13.5 333.7 24.2
2001-08-21 13:17:53 51°30.256 2°48.111 331.2 13.6 333.3 26.2
2001-08-21 13:18:53 51°30.413 2°48.026 350 7.4 355.4 28.3
2001-08-21 13:19:53 51°30.477 2°48.062 40.8 2 48.3 28.4
2001-08-21 13:20:55 51°30.483 2°48.073 50.8 0.7 47.2 -999
2001-08-21 13:21:53 51°30.491 2°48.093 41.5 1 56.5 27.6
2001-08-21 13:22:53 51°30.5 2°48.117 32.2 1.1 60.7 28.8
2001-08-21 13:23:55 51°30.52 2°48.157 38 3.3 44.2 25.7
2001-08-21 13:24:55 51°30.555 2°48.218 62 1.5 47.7 29.5
2001-08-21 13:25:53 51°30.566 2°48.233 66 2.2 57.2 29.4
2001-08-21 13:26:53 51°30.59 2°48.301 78.7 2.9 60.4 29.4
2001-08-21 13:27:55 51°30.612 2°48.368 81.2 2.7 62.3 30
2001-08-21 13:28:55 51°30.634 2°48.429 84.5 2.6 64 28.1
2001-08-21 13:29:53 51°30.649 2°48.489 87.2 2.5 64.8 27.3
2001-08-21 13:30:53 51°30.667 2°48.548 84.5 2.4 64.3 29.7
2001-08-21 13:31:55 51°30.687 2°48.606 79.2 2.3 62.8 29.3
2001-08-21 13:32:53 51°30.705 2°48.659 72.3 2.4 60.1 26.8
2001-08-21 13:33:53 51°30.725 2°48.713 67.7 2.3 57.9 30
2001-08-21 13:34:55 51°30.746 2°48.767 65 2.3 57.4 28.1
2001-08-21 13:35:55 51°30.768 2°48.82 63.5 2.4 56.4 29.3
2001-08-21 13:36:53 51°30.789 2°48.869 61 2.3 55.2 27.9
2001-08-21 13:37:53 51°30.836 2°48.942 28.7 7.2 33.2 26.9
2001-08-21 13:38:55 51°31.03 2°48.908 340.3 13.2 342.3 27.9
2001-08-21 13:39:55 51°31.248 2°48.792 338.2 13.8 340 32.6
2001-08-21 13:40:53 51°31.462 2°48.681 341.3 14 343.2 30.1
2001-08-21 13:41:55 51°31.691 2°48.562 338.3 14 340.8 32.7
2001-08-21 13:42:55 51°31.915 2°48.459 344.5 14.1 346 36.4
2001-08-21 13:43:55 51°32.148 2°48.389 342.5 14.1 344.8 36.3
2001-08-21 13:44:53 51°32.368 2°48.297 343.2 14.2 345.6 33.8
2001-08-21 13:45:55 51°32.608 2°48.22 348 14.3 349.8 35.8
2001-08-21 13:46:55 51°32.84 2°48.151 347.8 14.2 349.9 34.2
2001-08-21 13:47:53 51°33.065 2°48.081 344.8 14.2 347.7 34.1
2001-08-21 13:48:55 51°33.296 2°47.972 339.8 14.1 342.5 37.1
2001-08-21 13:49:55 51°33.516 2°47.852 339.8 14 342.5 34.4
2001-08-21 13:50:55 51°33.744 2°47.756 343.7 14.2 346.5 32.9
2001-08-21 13:51:53 51°33.96 2°47.649 341.7 14.1 344.5 31.2
2001-08-21 13:52:55 51°34.193 2°47.543 341.3 14 343.3 31.9
2001-08-21 13:53:55 51°34.424 2°47.462 347.7 14.3 348.5 33.2
2001-08-21 13:54:55 51°34.646 2°47.389 349.3 11.8 352.7 34.1
2001-08-21 13:55:53 51°34.767 2°47.419 21.3 5.2 24.8 36.4
2001-08-21 13:56:55 51°34.798 2°47.454 45.7 1.9 36.7 36.8
2001-08-21 13:57:55 51°34.825 2°47.487 42.3 2.1 39.4 32.3
2001-08-21 13:58:53 51°34.852 2°47.522 39.7 2.2 39.7 35
2001-08-21 13:59:55 51°34.88 2°47.56 38.5 2.2 40.7 37.2
2001-08-21 14:00:55 51°34.918 2°47.624 62.2 4.3 51.6 35.7
2001-08-21 14:01:55 51°34.943 2°47.651 86.7 1.5 6.2 -999
2001-08-21 14:02:55 51°34.968 2°47.679 91.2 3 58.3 35.1
2001-08-21 14:03:55 51°34.994 2°47.748 96.7 2.9 59 34.7
2001-08-21 14:04:55 51°35.015 2°47.812 103.2 2.7 61.2 34.9
2001-08-21 14:05:55 51°35.034 2°47.874 111.5 2.6 66.5 33.5
2001-08-21 14:06:53 51°35.049 2°47.959 96.7 3.8 73.8 35.8
2001-08-21 14:07:55 51°35.072 2°48.051 88 3.4 65.9 34.4
2001-08-21 14:08:54 51°35.096 2°48.129 84.2 3.3 61.4 31.5
2001-08-21 14:09:53 51°35.12 2°48.214 91.5 3.5 66.8 34.4
2001-08-21 14:10:55 51°35.143 2°48.298 93.2 3.2 64.8 31.7
2001-08-21 14:11:55 51°35.165 2°48.372 89.7 3 63 33.1
2001-08-21 14:12:55 51°35.191 2°48.44 84.7 3 57.5 31.6
2001-08-21 14:13:55 51°35.216 2°48.504 84.5 2.8 56.5 31.4
2001-08-21 14:14:55 51°35.204 2°48.665 135.8 9.5 119.9 32.5
2001-08-21 14:15:55 51°35.032 2°48.772 170 12.3 161.3 31
2001-08-21 14:16:55 51°34.831 2°48.858 173 12.6 163.8 29.9
2001-08-21 14:17:55 51°34.628 2°48.925 176.2 12.5 167.1 30.3
2001-08-21 14:18:55 51°34.424 2°48.984 178.2 12.4 168.9 30.3
2001-08-21 14:19:55 51°34.221 2°49.033 186.2 12.2 177.1 32.4
2001-08-21 14:20:55 51°34.018 2°49.051 187.8 12.2 178.7 35.8
2001-08-21 14:21:55 51°33.813 2°49.07 186.5 12.3 176.8 36
2001-08-21 14:22:55 51°33.61 2°49.09 183.8 12.3 174.2 35.5
2001-08-21 14:23:55 51°33.405 2°49.138 183.5 12.4 173.9 36.4
2001-08-21 14:24:55 51°33.201 2°49.153 186.3 12.3 177.3 34.3
2001-08-21 14:25:55 51°32.997 2°49.186 186.2 12.3 177.4 34.6
2001-08-21 14:26:55 51°32.793 2°49.209 180.5 12.4 171.4 33.9
2001-08-21 14:27:55 51°32.59 2°49.241 185.2 12.2 176.4 34.3
2001-08-21 14:28:55 51°32.385 2°49.252 185 12.4 176.2 33.3
2001-08-21 14:29:55 51°32.181 2°49.265 187.3 12.3 179.4 35.4
2001-08-21 14:30:53 51°31.984 2°49.264 186.5 12.3 178.5 29.8
2001-08-21 14:31:53 51°31.779 2°49.266 187 12.3 179.9 30.9
2001-08-21 14:32:55 51°31.568 2°49.269 190.2 12.2 182.2 31.2
2001-08-21 14:33:55 51°31.365 2°49.263 183 12.3 175 31.1
2001-08-21 14:34:53 51°31.169 2°49.282 185.8 12.3 178.3 26.7
2001-08-21 14:35:55 51°30.957 2°49.288 188.8 12.3 181.8 28.9
2001-08-21 14:36:55 51°30.752 2°49.307 181.2 12.4 173.1 29.2
2001-08-21 14:37:55 51°30.547 2°49.344 180.3 12.4 172.7 28.3
2001-08-21 14:38:55 51°30.342 2°49.374 183 12.3 175.4 25.7
2001-08-21 14:39:55 51°30.138 2°49.419 180.2 12.3 172.4 25.4
2001-08-21 14:40:55 51°29.934 2°49.457 181.8 12.3 173.2 26.1
2001-08-21 14:41:53 51°29.737 2°49.509 180.2 12.3 170.4 28.4
2001-08-21 14:42:55 51°29.527 2°49.57 180 12.4 169.9 28.9
2001-08-21 14:43:55 51°29.325 2°49.63 179.8 12.3 169.5 30.4
2001-08-21 14:44:55 51°29.124 2°49.684 181 12.3 170.6 31
2001-08-21 14:45:53 51°28.928 2°49.738 180.5 12.4 170.4 30.3
2001-08-21 14:46:55 51°28.719 2°49.795 180.2 12.4 169.9 29
2001-08-21 14:47:55 51°28.514 2°49.846 182.2 12.4 172.7 29.7
2001-08-21 14:48:55 51°28.308 2°49.893 180.5 12.6 171.9 29.2
2001-08-21 14:49:53 51°28.108 2°49.932 181 12.4 172.7 29.9
2001-08-21 14:50:55 51°27.896 2°49.974 180 12.5 172.3 30.2
2001-08-21 14:51:53 51°27.697 2°50.021 178.8 12.4 170.7 29.6
2001-08-21 14:52:55 51°27.485 2°50.068 180 12.4 172.3 27.1
2001-08-21 14:53:55 51°27.279 2°50.105 181.8 12.5 174.8 25.3
2001-08-21 14:54:55 51°27.072 2°50.145 181 12.5 174.1 24.1
2001-08-21 14:55:55 51°26.867 2°50.191 179 12.4 171.3 22.4
2001-08-21 14:56:55 51°26.662 2°50.241 178.7 12.4 170 24.9
2001-08-21 14:57:55 51°26.459 2°50.296 180.2 12.3 170 25.4
2001-08-21 14:58:53 51°26.264 2°50.354 180.7 12.3 170.4 25.6
2001-08-21 14:59:55 51°26.055 2°50.412 179.8 12.4 169.7 25.4
2001-08-21 15:00:55 51°25.852 2°50.476 180 12.4 170 25.4
2001-08-21 15:01:55 51°25.647 2°50.531 180.2 12.5 171.5 25.6
2001-08-21 15:02:53 51°25.448 2°50.581 180.7 12.5 172.4 25.6
2001-08-21 15:03:55 51°25.235 2°50.627 179.7 12.5 171.5 25.3
2001-08-21 15:04:55 51°25.03 2°50.672 180.8 12.4 173 25.2
2001-08-21 15:05:55 51°24.825 2°50.714 176.7 12.5 170 25
2001-08-21 15:06:55 51°24.62 2°50.785 175.3 12.6 167.8 25
2001-08-21 15:07:53 51°24.422 2°50.859 174 12.6 166.7 24
2001-08-21 15:08:55 51°24.211 2°50.941 174.7 12.5 166.2 24.3
2001-08-21 15:09:55 51°24.004 2°51.007 177.2 12.7 171 23.1
2001-08-21 15:10:55 51°23.796 2°51.07 175 12.7 168.8 21.8
2001-08-21 15:11:55 51°23.589 2°51.139 175.2 12.6 169 19.3
2001-08-21 15:12:55 51°23.383 2°51.198 176.8 12.6 170.3 16.3
2001-08-21 15:13:55 51°23.178 2°51.258 177.2 12.6 170.9 16.5
2001-08-21 15:14:55 51°22.973 2°51.33 173.5 12.8 166.1 24
2001-08-21 15:15:55 51°22.766 2°51.404 177.7 12.6 169.2 25
2001-08-21 15:16:55 51°22.565 2°51.469 176.8 12.4 167.7 25.1
2001-08-21 15:17:55 51°22.362 2°51.532 178 12.3 169.6 25.8
2001-08-21 15:18:55 51°22.162 2°51.607 174.8 12.3 166.1 25.8
2001-08-21 15:19:55 51°21.962 2°51.683 175.5 12.4 167.7 26.2
2001-08-21 15:20:55 51°21.758 2°51.758 174 12.6 167.3 26.4
2001-08-21 15:21:55 51°21.551 2°51.83 174 12.9 166.2 24.7
2001-08-21 15:22:55 51°21.342 2°51.911 174.8 12.8 167 22.3
2001-08-21 15:23:55 51°21.134 2°51.981 177.3 12.7 169.7 19.7
2001-08-21 15:24:55 51°20.925 2°52.038 178.5 12.7 171.7 17.4
2001-08-21 15:25:55 51°20.716 2°52.094 176.3 12.8 169.8 15.9
2001-08-21 15:26:55 51°20.506 2°52.139 179 12.8 173 16.4
2001-08-21 15:27:55 51°20.295 2°52.184 176.2 12.9 170.6 16.6
2001-08-21 15:28:55 51°20.083 2°52.234 177.8 12.9 172.7 18.5
2001-08-21 15:29:55 51°19.87 2°52.273 178.8 12.9 172.6 18.3
2001-08-21 15:30:55 51°19.659 2°52.308 181 12.7 174.9 18
2001-08-21 15:31:55 51°19.449 2°52.352 181.5 12.6 175.6 17.5
2001-08-21 15:32:55 51°19.24 2°52.361 184.3 12.6 179 16.7
2001-08-21 15:33:55 51°19.031 2°52.369 184.2 12.5 178.6 15.7
2001-08-21 15:34:55 51°18.822 2°52.388 180.7 12.7 175.1 14.7
2001-08-21 15:35:55 51°18.613 2°52.396 185.3 12.5 180.4 13.9
2001-08-21 15:36:55 51°18.404 2°52.397 184.3 12.6 179 13.3
2001-08-21 15:37:55 51°18.195 2°52.407 181.8 12.6 177.3 13
2001-08-21 15:38:55 51°17.986 2°52.425 183.7 12.5 178.4 12.8
2001-08-21 15:39:55 51°17.778 2°52.442 182.3 12.5 177 12.6
2001-08-21 15:40:55 51°17.569 2°52.459 181.8 12.5 176.9 12.6
2001-08-21 15:41:55 51°17.361 2°52.512 175 12.7 169.2 12.3
2001-08-21 15:42:55 51°17.157 2°52.616 164.8 12.9 158.5 11.8
2001-08-21 15:43:55 51°16.959 2°52.756 159 13 152.8 11.8
2001-08-21 15:44:55 51°16.769 2°52.923 157 13.2 150.3 12.7
2001-08-21 15:45:55 51°16.575 2°53.094 159 13.2 152.2 14
2001-08-21 15:46:55 51°16.378 2°53.252 160.2 13.3 153.2 14.4
2001-08-21 15:47:55 51°16.182 2°53.412 159.5 13.3 153.7 14.3
2001-08-21 15:48:55 51°15.987 2°53.58 157.8 13.2 151.6 13.9
2001-08-21 15:49:55 51°15.788 2°53.732 160.7 13.3 154.7 13.4
2001-08-21 15:50:55 51°15.587 2°53.876 161.3 13.3 156 12.7
2001-08-21 15:51:55 51°15.385 2°54.017 161.5 13.2 156 11.7
2001-08-21 15:52:55 51°15.189 2°54.178 153.2 13.3 147.4 11.1
2001-08-21 15:53:55 51°15.011 2°54.388 150.3 13 144.2 10.5
2001-08-21 15:54:55 51°14.885 2°54.55 149.5 7.4 139 11.5
2001-08-21 15:55:55 51°14.815 2°54.658 148.7 5.1 135 11.5
2001-08-21 15:56:55 51°14.759 2°54.736 156.2 4.2 141.3 11.4
2001-08-21 15:57:55 51°14.707 2°54.799 157 3.8 142.6 11.4
2001-08-21 15:58:55 51°14.662 2°54.861 150.7 3.3 134.5 11.4
2001-08-21 15:59:55 51°14.672 2°54.881 168 0.9 51.8 -999
2001-08-21 16:00:55 51°14.661 2°54.901 190.2 1.1 149.2 11.3
2001-08-21 16:01:55 51°14.642 2°54.909 192.7 1.6 169.9 11.4
2001-08-21 16:02:55 51°14.554 2°54.924 179 9 173.3 11.3
2001-08-21 16:03:55 51°14.375 2°55.027 148.3 12.6 145.3 12.2
2001-08-21 16:04:55 51°14.242 2°55.278 130.3 12 128.4 12
2001-08-21 16:05:54 51°14.132 2°55.405 158 6.4 155.2 12
2001-08-21 16:06:55 51°14.051 2°55.461 157.7 4.7 155.6 12.1
2001-08-21 16:07:53 51°13.977 2°55.517 157.8 5.7 154.6 12.1
2001-08-21 16:08:53 51°13.88 2°55.585 157.7 6.6 155.3 11.2
2001-08-21 16:09:53 51°13.786 2°55.665 150.2 5.8 148 11.9
2001-08-21 16:10:53 51°13.73 2°55.743 129.7 3.7 130.5 12.2
2001-08-21 16:11:53 51°13.708 2°55.807 115.3 2.4 113.1 10.5
2001-08-21 16:12:59 51°13.693 2°55.864 113 2 111.2 10.1
2001-08-21 16:13:59 51°13.681 2°55.911 120.2 1.9 116.4 10.1
2001-08-21 16:14:59 51°13.678 2°55.919 134.8 0.3 128.1 10.1
2001-08-21 16:15:59 51°13.677 2°55.922 124.7   155.2 10.1
2001-08-21 16:16:59 51°13.677 2°55.922 128.5   290.6 10.1
2001-08-21 16:17:59 51°13.678 2°55.922 130.3   207.5 -999